QPF
0.03 0.04 0.04 0.05 0.06 0.07 0.08 0.08 0.08 0.08 0.08 0.07 0.05 0.03 0.02 0.02 0.03 0.03 0.03 0.02 0.01 0.00 0.00 0.00 0.00 0.00 0.00 0.00 0.01 0.00 0.00 0.00 0.00 0.00 0.00 0.00 0.00 0.00 0.00 0.00 0.00 0.00 0.00
0.02 0.03 0.04 0.04 0.04 0.04 0.05 0.06 0.06 0.05 0.05 0.06 0.07 0.06 0.07 0.07 0.06 0.06 0.04 0.03 0.02 0.01 0.01 0.01 0.01 0.01 0.01 0.01 0.01 0.01 0.01 0.00 0.00 0.01 0.01 0.00 0.00 0.00 0.00 0.00 0.00 0.00 0.00
0.01 0.02 0.02 0.03 0.03 0.04 0.04 0.05 0.05 0.05 0.06 0.06 0.07 0.06 0.07 0.06 0.07 0.05 0.04 0.04 0.04 0.03 0.03 0.03 0.03 0.02 0.02 0.02 0.02 0.01 0.01 0.01 0.00 0.00 0.01 0.01 0.00 0.00 0.00 0.00 0.00 0.00 0.00
0.01 0.01 0.01 0.01 0.02 0.03 0.04 0.04 0.04 0.05 0.07 0.08 0.08 0.06 0.05 0.05 0.05 0.07 0.06 0.06 0.05 0.04 0.03 0.03 0.02 0.02 0.01 0.01 0.01 0.01 0.01 0.01 0.00 0.00 0.00 0.01 0.01 0.01 0.01 0.00 0.00 0.00 0.00
0.00 0.00 0.00 0.01 0.01 0.01 0.03 0.03 0.03 0.05 0.07 0.08 0.10 0.10 0.08 0.07 0.07 0.07 0.06 0.06 0.05 0.03 0.03 0.02 0.02 0.02 0.02 0.02 0.02 0.02 0.02 0.01 0.01 0.01 0.00 0.00 0.01 0.01 0.02 0.01 0.00 0.00 0.00
0.00 0.00 0.00 0.00 0.00 0.00 0.01 0.02 0.03 0.03 0.06 0.09 0.10 0.09 0.08 0.07 0.05 0.05 0.05 0.04 0.04 0.03 0.02 0.02 0.02 0.03 0.03 0.03 0.02 0.02 0.01 0.01 0.01 0.01 0.01 0.00 0.01 0.00 0.01 0.01 0.01 0.01 0.00
0.00 0.00 0.00 0.00 0.00 0.00 0.00 0.01 0.01 0.02 0.03 0.06 0.07 0.08 0.07 0.06 0.05 0.05 0.04 0.03 0.03 0.02 0.02 0.02 0.02 0.02 0.01 0.01 0.01 0.01 0.00 0.00 0.00 0.00 0.00 0.00 0.00 0.01 0.01 0.01 0.01 0.01 0.00
0.00 0.00 0.00 0.00 0.00 0.00 0.00 0.00 0.00 0.01 0.02 0.03 0.05 0.05 0.06 0.05 0.04 0.04 0.04 0.04 0.03 0.03 0.03 0.02 0.02 0.01 0.01 0.01 0.00 0.00 0.00 0.00 0.00 0.00 0.00 0.00 0.00 0.00 0.01 0.01 0.01 0.01 0.00
0.00 0.00 0.00 0.00 0.00 0.00 0.00 0.00 0.00 0.00 0.00 0.01 0.02 0.03 0.03 0.03 0.03 0.03 0.03 0.02 0.02 0.02 0.01 0.01 0.01 0.00 0.00 0.00 0.00 0.00 0.00 0.00 0.00 0.00 0.00 0.00 0.00 0.00 0.00 0.00 0.01 0.01 0.01
0.00 0.00 0.00 0.00 0.00 0.00 0.00 0.00 0.00 0.00 0.00 0.00 0.00 0.01 0.02 0.01 0.02 0.02 0.01 0.01 0.01 0.01 0.00 0.00 0.00 0.00 0.00 0.00 0.00 0.00 0.00 0.00 0.00 0.00 0.00 0.00 0.00 0.00 0.00 0.00 0.00 0.00 0.01
0.00 0.00 0.00 0.00 0.00 0.00 0.00 0.00 0.00 0.00 0.00 0.00 0.00 0.00 0.01 0.01 0.01 0.01 0.01 0.00 0.00 0.00 0.00 0.00 0.00 0.00 0.00 0.00 0.00 0.00 0.00 0.00 0.00 0.00 0.00 0.00 0.00 0.00 0.00 0.00 0.00 0.00 0.00
0.00 0.00 0.00 0.00 0.00 0.00 0.00 0.00 0.00 0.00 0.00 0.00 0.00 0.00 0.00 0.01 0.01 0.00 0.00 0.00 0.00 0.00 0.00 0.00 0.00 0.00 0.00 0.00 0.00 0.00 0.00 0.00 0.00 0.00 0.00 0.00 0.00 0.00 0.00 0.00 0.00 0.00 0.00
0.00 0.00 0.00 0.00 0.00 0.00 0.00 0.00 0.00 0.00 0.00 0.00 0.00 0.00 0.00 0.00 0.00 0.00 0.00 0.00 0.00 0.00 0.00 0.00 0.00 0.00 0.00 0.00 0.00 0.00 0.00 0.00 0.00 0.00 0.00 0.00 0.00 0.00 0.00 0.00 0.00 0.00 0.00
0.00 0.00 0.00 0.00 0.00 0.00 0.00 0.00 0.00 0.00 0.00 0.00 0.00 0.00 0.00 0.00 0.00 0.00 0.00 0.00 0.00 0.00 0.00 0.00 0.00 0.00 0.00 0.00 0.00 0.00 0.00 0.00 0.00 0.00 0.00 0.00 0.00 0.00 0.00 0.00 0.00 0.00 0.00
0.00 0.00 0.00 0.00 0.00 0.00 0.00 0.00 0.00 0.00 0.00 0.00 0.00 0.00 0.00 0.00 0.00 0.00 0.00 0.00 0.00 0.00 0.00 0.00 0.00 0.00 0.00 0.00 0.00 0.00 0.00 0.00 0.00 0.00 0.00 0.00 0.00 0.00 0.00 0.00 0.00 0.00 0.00
0.00 0.00 0.00 0.00 0.00 0.00 0.00 0.00 0.00 0.00 0.00 0.00 0.00 0.00 0.00 0.00 0.00 0.00 0.00 0.00 0.00 0.00 0.00 0.00 0.00 0.00 0.00 0.00 0.00 0.00 0.00 0.00 0.00 0.00 0.00 0.00 0.00 0.00 0.00 0.00 0.00 0.00 0.00
0.00 0.00 0.00 0.00 0.00 0.00 0.00 0.00 0.00 0.00 0.00 0.00 0.00 0.00 0.00 0.00 0.00 0.00 0.00 0.00 0.00 0.00 0.00 0.00 0.00 0.00 0.00 0.00 0.00 0.00 0.00 0.00 0.00 0.00 0.00 0.00 0.00 0.00 0.00 0.00 0.00 0.00 0.00
0.00 0.00 0.00 0.00 0.00 0.00 0.00 0.00 0.00 0.00 0.00 0.00 0.00 0.00 0.00 0.00 0.00 0.00 0.00 0.00 0.00 0.00 0.00 0.00 0.00 0.00 0.00 0.00 0.00 0.00 0.00 0.00 0.00 0.00 0.00 0.00 0.00 0.00 0.00 0.00 0.00 0.00 0.00
0.00 0.00 0.00 0.00 0.00 0.00 0.00 0.00 0.00 0.00 0.00 0.00 0.00 0.00 0.00 0.00 0.00 0.00 0.00 0.00 0.00 0.00 0.00 0.00 0.00 0.00 0.00 0.00 0.00 0.00 0.00 0.00 0.00 0.00 0.00 0.00 0.00 0.00 0.00 0.00 0.00 0.00 0.00
0.00 0.00 0.00 0.00 0.00 0.00 0.00 0.00 0.00 0.00 0.00 0.00 0.00 0.00 0.00 0.00 0.00 0.00 0.00 0.00 0.00 0.00 0.00 0.00 0.00 0.00 0.00 0.00 0.00 0.00 0.00 0.00 0.00 0.00 0.00 0.00 0.00 0.00 0.00 0.00 0.00 0.00 0.00
0.00 0.00 0.00 0.00 0.00 0.00 0.00 0.00 0.00 0.00 0.00 0.00 0.00 0.00 0.00 0.00 0.00 0.00 0.00 0.00 0.00 0.00 0.00 0.00 0.00 0.00 0.00 0.00 0.00 0.00 0.00 0.00 0.00 0.00 0.00 0.00 0.00 0.00 0.00 0.00 0.00 0.00 0.00
0.00 0.00 0.00 0.00 0.00 0.00 0.00 0.00 0.00 0.00 0.00 0.00 0.00 0.00 0.00 0.00 0.00 0.00 0.00 0.00 0.00 0.00 0.00 0.00 0.00 0.00 0.00 0.00 0.00 0.00 0.00 0.00 0.00 0.00 0.00 0.00 0.00 0.00 0.00 0.00 0.00 0.00 0.00
0.00 0.00 0.00 0.00 0.00 0.00 0.00 0.00 0.00 0.00 0.00 0.00 0.00 0.00 0.00 0.00 0.00 0.00 0.00 0.00 0.00 0.00 0.00 0.00 0.00 0.00 0.00 0.00 0.00 0.00 0.00 0.00 0.00 0.00 0.00 0.00 0.00 0.00 0.00 0.00 0.00 0.00 0.00
0.00 0.00 0.00 0.00 0.00 0.00 0.00 0.00 0.00 0.00 0.00 0.00 0.00 0.00 0.00 0.00 0.00 0.00 0.00 0.00 0.00 0.00 0.00 0.00 0.00 0.00 0.00 0.00 0.00 0.00 0.00 0.00 0.00 0.00 0.00 0.00 0.00 0.00 0.00 0.00 0.00 0.00 0.00
0.00 0.00 0.00 0.00 0.00 0.00 0.00 0.00 0.00 0.00 0.00 0.00 0.00 0.00 0.00 0.01 0.01 0.00 0.00 0.00 0.00 0.00 0.00 0.00 0.00 0.00 0.00 0.00 0.00 0.00 0.00 0.00 0.00 0.00 0.00 0.00 0.00 0.00 0.00 0.00 0.00 0.00 0.00
0.00 0.00 0.00 0.00 0.00 0.00 0.01 0.01 0.01 0.01 0.01 0.01 0.01 0.01 0.01 0.01 0.01 0.01 0.01 0.01 0.01 0.01 0.01 0.01 0.01 0.00 0.00 0.00 0.00 0.00 0.00 0.00 0.00 0.00 0.00 0.00 0.00 0.00 0.00 0.00 0.00 0.00 0.00
MSLP
1013.06 1013.03 1013.03 1013.05 1013.07 1013.11 1013.17 1013.28 1013.48 1013.77 1014.16 1014.62 1015.13 1015.65 1016.12 1016.51 1016.81 1017.03 1017.17 1017.27 1017.37 1017.50 1017.67 1017.90 1018.18 1018.49 1018.80 1019.11 1019.37 1019.60 1019.78 1019.90 1019.97 1019.99 1019.95 1019.84 1019.66 1019.42 1019.12 1018.80 1018.47 1018.18 1017.95
1013.01 1012.96 1012.94 1012.93 1012.92 1012.92 1012.94 1013.03 1013.20 1013.48 1013.87 1014.34 1014.87 1015.40 1015.89 1016.30 1016.61 1016.83 1016.98 1017.09 1017.19 1017.32 1017.50 1017.73 1018.00 1018.30 1018.60 1018.89 1019.15 1019.37 1019.54 1019.68 1019.78 1019.83 1019.82 1019.75 1019.61 1019.40 1019.12 1018.80 1018.48 1018.19 1017.96
1012.81 1012.77 1012.76 1012.76 1012.75 1012.75 1012.76 1012.84 1013.00 1013.27 1013.65 1014.12 1014.65 1015.18 1015.67 1016.09 1016.41 1016.65 1016.82 1016.95 1017.08 1017.23 1017.43 1017.66 1017.93 1018.21 1018.48 1018.73 1018.96 1019.15 1019.32 1019.45 1019.57 1019.65 1019.68 1019.66 1019.56 1019.38 1019.14 1018.85 1018.56 1018.29 1018.08
1012.54 1012.53 1012.56 1012.59 1012.61 1012.63 1012.67 1012.74 1012.90 1013.16 1013.52 1013.97 1014.46 1014.97 1015.45 1015.86 1016.20 1016.46 1016.67 1016.85 1017.03 1017.22 1017.44 1017.69 1017.95 1018.20 1018.44 1018.65 1018.83 1018.99 1019.13 1019.26 1019.38 1019.48 1019.55 1019.56 1019.51 1019.38 1019.17 1018.92 1018.66 1018.42 1018.25
1012.26 1012.31 1012.40 1012.49 1012.57 1012.62 1012.68 1012.77 1012.92 1013.16 1013.48 1013.87 1014.32 1014.78 1015.23 1015.63 1015.98 1016.28 1016.53 1016.77 1017.02 1017.27 1017.53 1017.80 1018.06 1018.30 1018.50 1018.66 1018.79 1018.91 1019.02 1019.13 1019.25 1019.36 1019.45 1019.49 1019.47 1019.37 1019.20 1018.98 1018.75 1018.55 1018.42
1012.07 1012.20 1012.36 1012.51 1012.64 1012.74 1012.83 1012.92 1013.06 1013.25 1013.52 1013.85 1014.23 1014.63 1015.03 1015.41 1015.76 1016.10 1016.41 1016.73 1017.04 1017.36 1017.68 1017.98 1018.25 1018.47 1018.63 1018.75 1018.84 1018.92 1019.00 1019.09 1019.20 1019.31 1019.41 1019.46 1019.45 1019.37 1019.21 1019.01 1018.80 1018.63 1018.54
1012.03 1012.23 1012.46 1012.68 1012.85 1012.99 1013.09 1013.19 1013.30 1013.45 1013.65 1013.91 1014.20 1014.53 1014.88 1015.24 1015.59 1015.96 1016.33 1016.72 1017.11 1017.50 1017.87 1018.20 1018.48 1018.69 1018.83 1018.92 1018.97 1019.01 1019.06 1019.14 1019.24 1019.35 1019.44 1019.49 1019.48 1019.39 1019.23 1019.04 1018.84 1018.69 1018.61
1012.19 1012.45 1012.72 1012.98 1013.19 1013.34 1013.45 1013.54 1013.62 1013.73 1013.86 1014.04 1014.26 1014.52 1014.81 1015.14 1015.50 1015.89 1016.32 1016.76 1017.22 1017.67 1018.08 1018.44 1018.72 1018.92 1019.05 1019.11 1019.14 1019.16 1019.20 1019.27 1019.36 1019.46 1019.55 1019.59 1019.56 1019.46 1019.29 1019.08 1018.88 1018.73 1018.68
1012.55 1012.83 1013.12 1013.38 1013.60 1013.75 1013.86 1013.93 1013.99 1014.05 1014.13 1014.24 1014.40 1014.60 1014.85 1015.15 1015.51 1015.92 1016.38 1016.87 1017.37 1017.86 1018.31 1018.68 1018.96 1019.15 1019.25 1019.30 1019.32 1019.33 1019.37 1019.44 1019.53 1019.64 1019.72 1019.75 1019.71 1019.59 1019.40 1019.18 1018.98 1018.83 1018.77
1013.07 1013.34 1013.60 1013.84 1014.03 1014.16 1014.25 1014.31 1014.34 1014.37 1014.42 1014.49 1014.61 1014.77 1014.99 1015.28 1015.63 1016.05 1016.53 1017.04 1017.56 1018.07 1018.52 1018.88 1019.15 1019.32 1019.42 1019.45 1019.47 1019.48 1019.53 1019.62 1019.73 1019.85 1019.94 1019.97 1019.93 1019.80 1019.60 1019.38 1019.16 1019.01 1018.96
1013.69 1013.91 1014.12 1014.29 1014.43 1014.52 1014.58 1014.62 1014.64 1014.66 1014.70 1014.76 1014.86 1015.01 1015.22 1015.50 1015.85 1016.28 1016.75 1017.27 1017.78 1018.27 1018.70 1019.04 1019.29 1019.44 1019.52 1019.55 1019.57 1019.60 1019.67 1019.79 1019.93 1020.07 1020.18 1020.23 1020.20 1020.08 1019.90 1019.68 1019.46 1019.32 1019.27
1014.37 1014.50 1014.61 1014.70 1014.76 1014.79 1014.81 1014.83 1014.85 1014.88 1014.92 1015.00 1015.12 1015.28 1015.49 1015.78 1016.13 1016.55 1017.02 1017.51 1018.01 1018.46 1018.86 1019.16 1019.37 1019.50 1019.56 1019.59 1019.62 1019.68 1019.78 1019.93 1020.11 1020.29 1020.44 1020.52 1020.52 1020.43 1020.27 1020.07 1019.88 1019.74 1019.70
1015.04 1015.06 1015.06 1015.03 1015.00 1014.96 1014.94 1014.93 1014.95 1014.99 1015.07 1015.18 1015.32 1015.52 1015.76 1016.06 1016.42 1016.84 1017.29 1017.76 1018.21 1018.63 1018.97 1019.24 1019.41 1019.52 1019.57 1019.60 1019.64 1019.73 1019.87 1020.05 1020.27 1020.50 1020.68 1020.81 1020.85 1020.80 1020.68 1020.52 1020.36 1020.24 1020.21
1015.67 1015.57 1015.44 1015.29 1015.15 1015.03 1014.95 1014.92 1014.94 1015.00 1015.11 1015.26 1015.45 1015.68 1015.97 1016.29 1016.67 1017.08 1017.52 1017.96 1018.38 1018.75 1019.06 1019.28 1019.43 1019.51 1019.56 1019.60 1019.67 1019.78 1019.95 1020.17 1020.43 1020.68 1020.91 1021.08 1021.16 1021.16 1021.08 1020.97 1020.85 1020.77 1020.75
1016.22 1016.01 1015.75 1015.49 1015.24 1015.04 1014.89 1014.82 1014.83 1014.90 1015.04 1015.23 1015.47 1015.75 1016.07 1016.44 1016.83 1017.25 1017.68 1018.10 1018.50 1018.84 1019.11 1019.31 1019.44 1019.51 1019.57 1019.62 1019.71 1019.84 1020.04 1020.29 1020.57 1020.85 1021.11 1021.30 1021.42 1021.47 1021.44 1021.37 1021.29 1021.24 1021.24
1016.69 1016.37 1016.01 1015.63 1015.28 1014.99 1014.78 1014.67 1014.65 1014.72 1014.87 1015.09 1015.37 1015.70 1016.06 1016.46 1016.89 1017.32 1017.76 1018.18 1018.55 1018.88 1019.13 1019.32 1019.45 1019.53 1019.60 1019.67 1019.78 1019.94 1020.16 1020.42 1020.71 1021.00 1021.27 1021.48 1021.62 1021.69 1021.70 1021.67 1021.62 1021.60 1021.61
1017.07 1016.67 1016.21 1015.74 1015.30 1014.92 1014.65 1014.48 1014.42 1014.48 1014.63 1014.87 1015.18 1015.54 1015.95 1016.38 1016.84 1017.30 1017.75 1018.18 1018.55 1018.87 1019.13 1019.32 1019.46 1019.56 1019.65 1019.75 1019.88 1020.06 1020.28 1020.55 1020.84 1021.12 1021.38 1021.59 1021.73 1021.82 1021.84 1021.83 1021.82 1021.81 1021.84
1017.35 1016.88 1016.35 1015.81 1015.30 1014.85 1014.51 1014.28 1014.18 1014.21 1014.35 1014.59 1014.91 1015.30 1015.74 1016.22 1016.71 1017.20 1017.68 1018.11 1018.50 1018.83 1019.09 1019.29 1019.45 1019.57 1019.69 1019.81 1019.97 1020.16 1020.39 1020.66 1020.93 1021.20 1021.44 1021.63 1021.76 1021.84 1021.87 1021.87 1021.86 1021.87 1021.91
1017.52 1017.01 1016.44 1015.85 1015.28 1014.78 1014.38 1014.09 1013.95 1013.93 1014.05 1014.28 1014.61 1015.02 1015.49 1016.00 1016.53 1017.05 1017.55 1018.00 1018.40 1018.74 1019.01 1019.23 1019.40 1019.54 1019.68 1019.83 1020.01 1020.21 1020.45 1020.71 1020.97 1021.21 1021.43 1021.59 1021.70 1021.77 1021.79 1021.80 1021.80 1021.81 1021.85
1017.59 1017.06 1016.46 1015.85 1015.25 1014.71 1014.26 1013.93 1013.74 1013.68 1013.77 1013.98 1014.31 1014.73 1015.22 1015.76 1016.32 1016.86 1017.38 1017.85 1018.26 1018.60 1018.88 1019.09 1019.27 1019.43 1019.59 1019.76 1019.95 1020.17 1020.42 1020.67 1020.92 1021.15 1021.34 1021.49 1021.58 1021.63 1021.65 1021.65 1021.65 1021.67 1021.71
1017.57 1017.03 1016.44 1015.81 1015.20 1014.64 1014.16 1013.79 1013.56 1013.47 1013.52 1013.72 1014.04 1014.46 1014.97 1015.52 1016.10 1016.66 1017.19 1017.67 1018.07 1018.41 1018.67 1018.88 1019.06 1019.22 1019.38 1019.56 1019.77 1020.00 1020.26 1020.52 1020.77 1021.00 1021.18 1021.32 1021.40 1021.45 1021.46 1021.46 1021.47 1021.49 1021.54
1017.49 1016.95 1016.37 1015.76 1015.15 1014.59 1014.09 1013.69 1013.42 1013.30 1013.32 1013.49 1013.79 1014.21 1014.72 1015.28 1015.87 1016.44 1016.97 1017.44 1017.83 1018.15 1018.39 1018.58 1018.74 1018.89 1019.05 1019.23 1019.45 1019.69 1019.96 1020.24 1020.51 1020.74 1020.94 1021.08 1021.18 1021.23 1021.25 1021.26 1021.27 1021.31 1021.36
1017.38 1016.86 1016.29 1015.71 1015.12 1014.55 1014.05 1013.63 1013.33 1013.17 1013.16 1013.29 1013.57 1013.98 1014.47 1015.03 1015.61 1016.17 1016.70 1017.15 1017.52 1017.80 1018.02 1018.18 1018.32 1018.44 1018.59 1018.77 1018.99 1019.25 1019.53 1019.83 1020.12 1020.38 1020.60 1020.77 1020.89 1020.96 1021.01 1021.04 1021.07 1021.12 1021.20
1017.28 1016.78 1016.25 1015.69 1015.12 1014.56 1014.05 1013.61 1013.28 1013.08 1013.03 1013.12 1013.36 1013.72 1014.19 1014.73 1015.29 1015.84 1016.34 1016.76 1017.11 1017.37 1017.56 1017.69 1017.79 1017.89 1018.02 1018.20 1018.42 1018.68 1018.99 1019.31 1019.63 1019.92 1020.18 1020.38 1020.53 1020.64 1020.72 1020.78 1020.84 1020.91 1021.01
1017.24 1016.77 1016.26 1015.72 1015.17 1014.62 1014.10 1013.64 1013.27 1013.02 1012.91 1012.94 1013.12 1013.43 1013.85 1014.35 1014.87 1015.39 1015.87 1016.27 1016.59 1016.83 1016.99 1017.10 1017.18 1017.27 1017.38 1017.54 1017.76 1018.03 1018.35 1018.69 1019.03 1019.36 1019.65 1019.89 1020.09 1020.24 1020.35 1020.44 1020.54 1020.64 1020.76
1017.28 1016.82 1016.34 1015.82 1015.28 1014.74 1014.20 1013.71 1013.29 1012.97 1012.78 1012.74 1012.84 1013.08 1013.43 1013.86 1014.33 1014.81 1015.26 1015.64 1015.95 1016.17 1016.32 1016.42 1016.50 1016.57 1016.68 1016.83 1017.04 1017.32 1017.63 1017.99 1018.35 1018.69 1019.01 1019.29 1019.52 1019.71 1019.87 1020.00 1020.13 1020.26 1020.42
Thickness
5644 5651 5656 5661 5665 5668 5671 5673 5674 5676 5676 5675 5675 5674 5674 5675 5675 5676 5676 5675 5674 5673 5672 5671 5670 5668 5667 5665 5664 5663 5662 5660 5660 5658 5658 5660 5660 5660 5659 5658 5655 5653 5651
5635 5643 5649 5653 5658 5663 5666 5668 5670 5671 5672 5673 5672 5671 5670 5669 5670 5669 5669 5669 5668 5667 5666 5664 5662 5661 5659 5658 5656 5655 5653 5652 5651 5648 5647 5647 5648 5650 5651 5649 5647 5644 5642
5632 5638 5643 5648 5652 5656 5661 5664 5666 5667 5667 5667 5666 5664 5662 5661 5660 5660 5660 5660 5660 5659 5658 5656 5655 5653 5652 5650 5648 5647 5645 5642 5641 5640 5637 5635 5635 5637 5640 5638 5636 5634 5631
5630 5636 5640 5643 5647 5652 5655 5658 5660 5661 5661 5661 5660 5658 5657 5655 5655 5654 5652 5651 5651 5650 5649 5647 5645 5644 5643 5642 5640 5638 5636 5634 5632 5630 5629 5628 5626 5624 5626 5627 5625 5623 5620
5627 5633 5637 5641 5644 5646 5648 5650 5652 5653 5653 5654 5654 5652 5651 5649 5647 5645 5643 5642 5640 5639 5639 5637 5636 5634 5633 5632 5630 5628 5627 5625 5623 5621 5619 5618 5616 5615 5613 5614 5612 5609 5607
5624 5629 5633 5636 5636 5637 5638 5640 5642 5643 5645 5646 5645 5645 5643 5641 5638 5636 5634 5632 5631 5629 5628 5627 5625 5624 5623 5621 5619 5618 5617 5615 5613 5612 5610 5608 5607 5605 5603 5603 5601 5598 5594
5618 5622 5625 5626 5627 5628 5629 5630 5632 5633 5635 5636 5636 5636 5635 5634 5632 5630 5626 5624 5621 5618 5617 5616 5614 5613 5611 5610 5609 5607 5606 5605 5603 5602 5600 5599 5597 5596 5595 5593 5592 5589 5585
5611 5616 5619 5620 5620 5620 5620 5621 5623 5624 5625 5626 5626 5626 5626 5625 5623 5621 5618 5615 5612 5609 5606 5604 5603 5601 5600 5599 5597 5596 5595 5594 5592 5591 5589 5588 5586 5584 5583 5582 5581 5579 5576
5604 5608 5610 5611 5611 5611 5612 5612 5613 5613 5614 5615 5615 5615 5615 5614 5612 5610 5608 5604 5601 5598 5596 5594 5591 5589 5588 5587 5586 5584 5582 5581 5580 5579 5577 5576 5574 5572 5571 5570 5569 5568 5567
5595 5598 5600 5601 5602 5602 5602 5602 5603 5603 5603 5603 5603 5603 5602 5602 5600 5598 5596 5593 5590 5586 5583 5581 5579 5577 5575 5574 5573 5572 5570 5569 5567 5566 5564 5563 5561 5560 5558 5557 5556 5555 5555
5584 5586 5587 5588 5589 5590 5590 5591 5591 5592 5591 5591 5591 5590 5589 5588 5586 5584 5582 5580 5577 5573 5571 5569 5566 5564 5562 5561 5560 5559 5558 5556 5554 5552 5550 5549 5547 5546 5544 5543 5542 5541 5540
5573 5574 5575 5576 5577 5578 5579 5580 5580 5581 5581 5580 5579 5577 5576 5574 5572 5570 5568 5566 5563 5560 5558 5555 5553 5551 5549 5548 5547 5546 5544 5543 5541 5539 5537 5535 5534 5532 5530 5529 5528 5527 5526
5562 5562 5562 5563 5565 5566 5568 5569 5570 5570 5569 5569 5567 5565 5563 5561 5559 5557 5555 5553 5550 5547 5545 5543 5541 5539 5537 5535 5534 5533 5531 5529 5527 5525 5523 5521 5519 5517 5516 5515 5514 5513 5512
5549 5550 5550 5552 5554 5556 5557 5559 5559 5559 5559 5558 5556 5554 5551 5549 5547 5545 5542 5540 5538 5535 5533 5531 5529 5527 5525 5523 5522 5520 5517 5515 5513 5511 5509 5508 5506 5504 5503 5501 5500 5500 5499
5538 5539 5540 5541 5543 5545 5547 5549 5550 5550 5550 5548 5546 5544 5541 5538 5536 5533 5530 5528 5526 5524 5522 5520 5517 5515 5514 5512 5510 5507 5505 5502 5500 5497 5496 5494 5493 5492 5491 5489 5487 5487 5486
5527 5530 5531 5533 5534 5536 5538 5540 5541 5541 5540 5539 5537 5534 5531 5528 5525 5522 5519 5516 5514 5512 5510 5508 5506 5504 5503 5501 5499 5496 5493 5490 5488 5485 5483 5481 5480 5480 5479 5478 5477 5476 5474
5516 5519 5521 5523 5525 5528 5531 5532 5534 5533 5532 5530 5528 5525 5522 5518 5514 5511 5508 5505 5503 5501 5499 5497 5495 5493 5492 5490 5488 5485 5481 5478 5476 5473 5471 5470 5469 5467 5466 5465 5464 5464 5464
5505 5507 5509 5513 5517 5520 5523 5526 5526 5525 5524 5521 5519 5516 5512 5508 5504 5500 5497 5495 5492 5490 5488 5487 5485 5482 5481 5480 5477 5474 5469 5466 5464 5462 5460 5458 5457 5456 5455 5453 5452 5451 5451
5493 5496 5499 5502 5507 5510 5514 5516 5517 5516 5514 5513 5510 5508 5504 5499 5495 5491 5488 5485 5482 5480 5478 5476 5474 5471 5469 5469 5466 5462 5458 5455 5452 5451 5449 5448 5447 5448 5447 5444 5442 5441 5441
5483 5486 5489 5493 5497 5501 5504 5506 5506 5506 5506 5505 5503 5500 5496 5492 5487 5483 5479 5476 5473 5470 5468 5465 5463 5461 5459 5458 5456 5452 5448 5445 5442 5441 5440 5440 5439 5439 5439 5435 5433 5432 5432
5473 5476 5479 5482 5486 5490 5493 5494 5495 5496 5497 5495 5493 5490 5487 5483 5480 5475 5471 5467 5464 5460 5457 5455 5453 5451 5450 5449 5447 5444 5439 5437 5435 5433 5432 5432 5433 5432 5431 5429 5426 5426 5425
5461 5465 5468 5471 5474 5477 5480 5483 5484 5486 5486 5485 5482 5480 5477 5474 5471 5466 5462 5458 5455 5452 5449 5446 5443 5442 5441 5440 5440 5438 5435 5432 5429 5428 5427 5426 5426 5425 5424 5423 5421 5420 5419
5449 5452 5455 5458 5462 5465 5467 5470 5473 5474 5475 5474 5472 5470 5468 5465 5462 5458 5455 5451 5448 5445 5442 5439 5438 5436 5434 5433 5433 5433 5431 5429 5425 5423 5422 5421 5420 5419 5418 5417 5416 5414 5411
5436 5439 5442 5446 5450 5453 5456 5458 5461 5463 5464 5464 5462 5461 5458 5456 5453 5451 5448 5445 5443 5440 5437 5435 5433 5431 5429 5428 5427 5426 5426 5425 5422 5419 5417 5417 5415 5414 5412 5410 5409 5407 5404
5423 5426 5429 5434 5438 5441 5445 5448 5450 5452 5453 5454 5453 5452 5450 5449 5446 5444 5443 5441 5439 5437 5435 5433 5430 5427 5426 5427 5426 5422 5420 5418 5416 5413 5410 5409 5407 5406 5405 5403 5402 5400 5398
5411 5414 5418 5422 5426 5429 5434 5437 5439 5442 5443 5444 5444 5444 5442 5441 5439 5437 5435 5435 5433 5432 5431 5429 5427 5425 5425 5425 5424 5422 5419 5416 5413 5409 5406 5405 5403 5402 5400 5399 5397 5395 5392